When you browse on this site, cookies collect data to enhance your experience and personalize the content and advertising you see.
Visit our Privacy Policy to learn more. By continuing to use the site, you agree to this use of cookies and data.
  • In Czech Republic
  • List of Countries
  • For 7 days
  • Water Temperature
  • Satellite Maps
  • Weather Map
  • Weather Widgets
  • user-avatar
    Login

    Hourly Weather Konyrat

    Today, 20 November, Tuesday

    Time Temperature Precipitation Wind Pressure Humidity
    00:00 -13°C° 0 mm 5 mps 733 mmHg 86%
    01:00 -13°C° 0 mm 5 mps 733 mmHg 85%
    02:00 -13°C° 0 mm 5 mps 732 mmHg 84%
    03:00 -13°C° 0 mm 5 mps 732 mmHg 84%
    04:00 -14°C° 0 mm 6 mps 732 mmHg 85%
    05:00 -15°C° 0 mm 6 mps 731 mmHg 82%
    06:00 -14°C° 0 mm 6 mps 731 mmHg 82%
    07:00 -14°C° 0 mm 6 mps 731 mmHg 82%
    08:00 -13°C° 0 mm 5 mps 731 mmHg 82%
    09:00 -12°C° 0 mm 5 mps 730 mmHg 80%
    10:00 -11°C° 0 mm 5 mps 730 mmHg 79%
    11:00 -10°C° 0 mm 5 mps 730 mmHg 77%
    12:00 -9°C° 0 mm 4 mps 729 mmHg 76%
    13:00 -8°C° 0 mm 4 mps 729 mmHg 76%
    14:00 -6°C° 0 mm 3 mps 729 mmHg 75%
    15:00 -6°C° 0.1 mm 3 mps 729 mmHg 78%
    16:00 -5°C° 0.1 mm 2 mps 729 mmHg 81%
    17:00 -5°C° 0.1 mm 2 mps 729 mmHg 83%
    18:00 -5°C° 0 mm 2 mps 729 mmHg 85%
    19:00 -5°C° 0 mm 2 mps 729 mmHg 86%
    20:00 -3°C° 0 mm 1 mps 729 mmHg 88%
    21:00 -5°C° 0 mm 2 mps 729 mmHg 89%
    22:00 -5°C° 0 mm 2 mps 729 mmHg 90%
    23:00 -5°C° 0 mm 2 mps 729 mmHg 90%

    Tomorrow, 21 November, Wednesday

    Time Temperature Precipitation Wind Pressure Humidity
    00:00 -4°C° 0.1 mm 2 mps 729 mmHg 92%
    01:00 -5°C° 0.1 mm 3 mps 728 mmHg 93%
    02:00 -5°C° 0.1 mm 4 mps 728 mmHg 94%
    03:00 -5°C° 0 mm 4 mps 728 mmHg 93%
    04:00 -4°C° 0 mm 4 mps 728 mmHg 93%
    05:00 -5°C° 0 mm 5 mps 728 mmHg 93%
    06:00 -5°C° 0 mm 5 mps 729 mmHg 93%
    07:00 -5°C° 0 mm 4 mps 729 mmHg 93%
    08:00 -5°C° 0 mm 4 mps 729 mmHg 93%
    09:00 -4°C° 0 mm 4 mps 729 mmHg 91%
    10:00 -4°C° 0 mm 4 mps 729 mmHg 89%
    11:00 -2°C° 0 mm 3 mps 729 mmHg 87%
    12:00 -2°C° 0 mm 3 mps 728 mmHg 86%
    13:00 -2°C° 0 mm 2 mps 728 mmHg 86%
    14:00 -2°C° 0 mm 2 mps 728 mmHg 85%
    15:00 -3°C° 0 mm 2 mps 727 mmHg 87%
    16:00 -2°C° 0 mm 1 mps 727 mmHg 88%
    17:00 -2°C° 0 mm 1 mps 726 mmHg 90%
    18:00 -2°C° 0 mm 1 mps 726 mmHg 91%
    19:00 -4°C° 0 mm 2 mps 725 mmHg 91%
    20:00 -4°C° 0 mm 2 mps 725 mmHg 92%
    21:00 -4°C° 0 mm 2 mps 724 mmHg 92%
    22:00 -5°C° 0 mm 3 mps 723 mmHg 93%
    23:00 -6°C° 0 mm 3 mps 723 mmHg 93%

    Day after tomorrow, 22 November, Thursday

    Time Temperature Precipitation Wind Pressure Humidity
    00:00 -6°C° 0 mm 3 mps 722 mmHg 93%
    01:00 -6°C° 0 mm 3 mps 722 mmHg 93%
    02:00 -6°C° 0 mm 3 mps 722 mmHg 94%
    03:00 -6°C° 0 mm 3 mps 721 mmHg 94%
    04:00 -6°C° 0 mm 3 mps 721 mmHg 95%
    05:00 -6°C° 0 mm 3 mps 720 mmHg 95%
    06:00 -4°C° 0 mm 2 mps 720 mmHg 96%
    07:00 -4°C° 0 mm 2 mps 720 mmHg 96%
    08:00 -3°C° 0 mm 2 mps 720 mmHg 97%
    09:00 -2°C° 0.1 mm 2 mps 720 mmHg 96%
    10:00 -2°C° 0.1 mm 2 mps 720 mmHg 95%
    11:00 -1°C° 0.1 mm 2 mps 720 mmHg 94%
    12:00 -1°C° 0 mm 3 mps 720 mmHg 94%
    13:00 -1°C° 0 mm 3 mps 720 mmHg 94%
    14:00 -1°C° 0 mm 3 mps 720 mmHg 94%
    15:00 -1°C° 0 mm 3 mps 720 mmHg 94%
    16:00 -1°C° 0 mm 3 mps 720 mmHg 95%
    17:00 -1°C° 0 mm 3 mps 720 mmHg 95%
    18:00 -2°C° 0.7 mm 4 mps 720 mmHg 96%
    19:00 -1°C° 0.7 mm 4 mps 720 mmHg 96%
    20:00 -1°C° 0.7 mm 5 mps 720 mmHg 97%
    21:00 -1°C° 0.3 mm 6 mps 720 mmHg 96%
    22:00 -1°C° 0.3 mm 7 mps 719 mmHg 95%
    23:00 0°C° 0.3 mm 8 mps 719 mmHg 94%

    23 November, Friday

    Time Temperature Precipitation Wind Pressure Humidity
    00:00 -1°C° 0 mm 8 mps 720 mmHg 93%
    01:00 -1°C° 0 mm 8 mps 721 mmHg 92%
    02:00 -1°C° 0 mm 8 mps 721 mmHg 92%
    03:00 -1°C° 0 mm 7 mps 722 mmHg 91%
    04:00 -2°C° 0 mm 7 mps 723 mmHg 90%
    05:00 -3°C° 0 mm 6 mps 723 mmHg 89%
    06:00 -4°C° 0 mm 5 mps 724 mmHg 88%
    07:00 -5°C° 0 mm 5 mps 724 mmHg 88%
    08:00 -5°C° 0 mm 4 mps 725 mmHg 87%
    09:00 -4°C° 0 mm 4 mps 725 mmHg 83%
    10:00 -3°C° 0 mm 4 mps 725 mmHg 80%
    11:00 -3°C° 0 mm 4 mps 725 mmHg 76%
    12:00 -2°C° 0 mm 4 mps 725 mmHg 76%
    13:00 -2°C° 0 mm 4 mps 725 mmHg 76%
    14:00 -1°C° 0 mm 4 mps 725 mmHg 76%
    15:00 -1°C° 0 mm 3 mps 725 mmHg 79%
    16:00 -1°C° 0 mm 2 mps 725 mmHg 82%
    17:00 0°C° 0 mm 1 mps 725 mmHg 84%
    18:00 -2°C° 0 mm 2 mps 725 mmHg 86%
    19:00 -2°C° 0 mm 2 mps 725 mmHg 87%
    20:00 -2°C° 0 mm 2 mps 725 mmHg 88%
    21:00 -1°C° 0 mm 3 mps 724 mmHg 91%
    22:00 -1°C° 0 mm 3 mps 724 mmHg 94%
    23:00 -1°C° 0 mm 3 mps 724 mmHg 96%

    24 November, Saturday

    Time Temperature Precipitation Wind Pressure Humidity
    00:00 0°C° 0.1 mm 3 mps 723 mmHg 97%
    01:00 0°C° 0.1 mm 3 mps 723 mmHg 97%
    02:00 0°C° 0.1 mm 3 mps 722 mmHg 98%
    03:00 0°C° 0.5 mm 3 mps 722 mmHg 98%
    04:00 -1°C° 0.5 mm 4 mps 721 mmHg 98%
    05:00 -1°C° 0.5 mm 4 mps 720 mmHg 98%
    06:00 0°C° 0.4 mm 4 mps 719 mmHg 98%
    07:00 0°C° 0.4 mm 4 mps 718 mmHg 98%
    08:00 0°C° 0.4 mm 5 mps 717 mmHg 98%
    09:00 0°C° 0.8 mm 5 mps 716 mmHg 98%
    10:00 0°C° 0.8 mm 5 mps 715 mmHg 98%
    11:00 0°C° 0.8 mm 5 mps 713 mmHg 98%
    12:00 0°C° 1.5 mm 8 mps 713 mmHg 95%
    13:00 0°C° 1.5 mm 10 mps 713 mmHg 92%
    14:00 -1°C° 1.5 mm 13 mps 713 mmHg 90%
    15:00 -4°C° 0.1 mm 13 mps 715 mmHg 79%
    16:00 -8°C° 0.1 mm 14 mps 717 mmHg 69%
    17:00 -11°C° 0.1 mm 14 mps 719 mmHg 59%
    18:00 -10°C° 0 mm 14 mps 721 mmHg 60%
    19:00 -10°C° 0 mm 14 mps 723 mmHg 60%
    20:00 -10°C° 0 mm 15 mps 724 mmHg 61%
    21:00 -10°C° 0 mm 14 mps 726 mmHg 61%
    22:00 -10°C° 0 mm 13 mps 727 mmHg 62%
    23:00 -10°C° 0 mm 12 mps 729 mmHg 63%

    25 November, Sunday

    Time Temperature Precipitation Wind Pressure Humidity
    00:00 -9°C° 0 mm 11 mps 730 mmHg 64%
    01:00 -9°C° 0 mm 10 mps 732 mmHg 65%
    02:00 -9°C° 0 mm 10 mps 733 mmHg 67%
    03:00 -10°C° 0 mm 9 mps 734 mmHg 66%
    04:00 -10°C° 0 mm 9 mps 735 mmHg 66%
    05:00 -11°C° 0 mm 8 mps 736 mmHg 66%
    06:00 -11°C° 0 mm 8 mps 737 mmHg 67%
    07:00 -12°C° 0 mm 7 mps 738 mmHg 67%
    08:00 -11°C° 0 mm 6 mps 739 mmHg 67%
    09:00 -11°C° 0 mm 6 mps 740 mmHg 64%
    10:00 -11°C° 0 mm 5 mps 740 mmHg 61%
    11:00 -10°C° 0 mm 5 mps 740 mmHg 59%
    12:00 -9°C° 0 mm 4 mps 740 mmHg 58%
    13:00 -9°C° 0 mm 4 mps 739 mmHg 56%
    14:00 -8°C° 0 mm 4 mps 739 mmHg 55%
    15:00 -7°C° 0 mm 3 mps 739 mmHg 59%
    16:00 -6°C° 0 mm 2 mps 739 mmHg 62%
    17:00 -6°C° 0 mm 2 mps 738 mmHg 65%
    18:00 -6°C° 0 mm 2 mps 738 mmHg 66%
    19:00 -6°C° 0 mm 2 mps 738 mmHg 68%
    20:00 -6°C° 0 mm 2 mps 738 mmHg 69%
    21:00 -7°C° 0 mm 2 mps 737 mmHg 71%
    22:00 -7°C° 0 mm 2 mps 737 mmHg 73%
    23:00 -7°C° 0 mm 2 mps 736 mmHg 75%
    Show more